User: anonymous   Login
Location: Unspecified
(0.0000°N, 0.0000°E)
Time: 20:46:19
(UTC+00:00)
Language:

STARLINK-2565 - Orbit

View from above orbital plane
View from above orbital plane
View from above satellite
View from above satellite

Ground track
Ground track

The orbit is defined by the following mean orbital elements,

1 48280U          26145.13620532 +.00000000 +00000-0 +79009-4 0 00004
2 48280  53.1594 105.6309 0001280  67.1903 292.9233 15.31690874    06
Epoch (UTC): 25 May 2026 03:16:08
Eccentricity: 0.0001280
inclination: 53.1594°
perigee height: 470 km
apogee height: 472 km
right ascension of ascending node: 105.6309°
argument of perigee: 67.1903°
revolutions per day: 15.31690874
mean anomaly at epoch: 292.9233°

The dashed part of the orbit path shows where the satellite is in the earth's shadow,  

DLR